This is the latest recevied weather packets stored in our database for station/object ANJALA. If no packets are shown the sender has not sent any weather packets the latest 10 day(s).
| Time | Temp. | Humidity | Pressure | Rain* | Wind** | Luminosity | Snow |
|---|---|---|---|---|---|---|---|
| 1777471606 | 8.89° C | 30% | - | 0 mm | - | - | - |
| 1777469206 | 8.33° C | 31% | - | 0 mm | - | - | - |
| 1777468006 | 8.33° C | 33% | - | 0 mm | - | - | - |
| 1777465606 | 8.89° C | 33% | - | 0 mm | - | - | - |
| 1777463206 | 8.33° C | 31% | - | 0 mm | - | - | - |
| 1777462006 | 8.89° C | 33% | - | 0 mm | - | - | - |
| 1777458406 | 8.33° C | 33% | - | 0 mm | - | - | - |
| 1777457205 | 7.78° C | 32% | - | 0 mm | - | - | - |
| 1777454805 | 6.67° C | 34% | - | 0 mm | - | - | - |
| 1777453605 | 5.56° C | 36% | - | 0 mm | - | - | - |
| 1777451205 | 5° C | 39% | - | 0 mm | - | - | - |
| 1777450005 | 4.44° C | 39% | - | 0 mm | - | - | - |
| 1777446405 | 5° C | 40% | - | 0 mm | - | - | - |
| 1777444005 | 4.44° C | 44% | - | 0 mm | - | - | - |
| 1777442804 | 4.44° C | 46% | - | 0 mm | - | - | - |
| 1777441604 | 3.89° C | 49% | - | 0 mm | - | - | - |
| 1777440405 | 3.33° C | 49% | - | 0 mm | - | - | - |
| 1777439204 | 3.33° C | 49% | - | 0 mm | - | - | - |
| 1777436804 | 3.33° C | 51% | - | 0 mm | - | - | - |
| 1777435604 | 3.33° C | 51% | - | 0 mm | - | - | - |
| 1777427204 | 2.78° C | 52% | - | 0 mm | - | - | - |
| 1777426004 | 2.78° C | 51% | - | 0 mm | - | - | - |
| 1777424804 | 2.78° C | 51% | - | 0 mm | - | - | - |
| 1777422404 | 3.33° C | 49% | - | 0 mm | - | - | - |
| 1777414003 | 3.33° C | 48% | - | 0 mm | - | - | - |
* Rain latest hour (hover to see other rain measurements)
** Current wind speed in m/s (hover to see current wind gust speed)